Regional Weather Roundup
Issued by NWS Sioux Falls, SD

Home | Current Version | Previous Version | Text Only | Print | Product List | Glossary Off
Versions: 1 2 3 4 5 6 7 8 9 10 11 12 13 14 15 16 17 18 19 20 21 22 23 24 25 26 27 28 29 30 31 32 33 34 35 36 37 38 39 40 41 42 43 44 45 46 47 48 49 50

000
ASUS43 KFSD 252210
RWRFSD

WEATHER ROUNDUP FOR SE SOUTH DAKOTA/SW MINNESOTA/NW IOWA
NATIONAL WEATHER SERVICE SIOUX FALLS SD
500 PM CDT WED APR 25 2018

NOTE: "FAIR" INDICATES FEW OR NO CLOUDS BELOW 12,000 FEET WITH NO
SIGNIFICANT WEATHER AND OR OBSTRUCTIONS TO VISIBILITY.


SDZ038>040-050-052>070-252300-
SOUTHEAST SOUTH DAKOTA

CITY           SKY/WX    TMP DP  RH WIND       PRES   REMARKS
BROOKINGS      SUNNY     57  30  35 VRB6      30.05
CHAMBERLAIN    MOSUNNY   65  33  30 S10G21    30.02F
HURON          MOSUNNY   62  33  33 S13       30.02F
MADISON        FAIR      57  28  33 S9        30.06F
MITCHELL       SUNNY     61  33  35 SW12      30.05F
SIOUX FALLS    MOSUNNY   60  26  27 S3        30.07F
WINNER         FAIR      66  26  22 SW13      30.03F
YANKTON        SUNNY     59  29  31 CALM      30.09F
$$

MNZ071-072-080-081-089-090-097-098-252300-
SOUTHWEST MINNESOTA

CITY           SKY/WX    TMP DP  RH WIND       PRES   REMARKS
FAIRMONT       SUNNY     55  35  47 CALM      30.09F
JACKSON        SUNNY     54  32  43 W8        30.09F
LUVERNE        SUNNY     59  23  25 SW3       30.08F
MARSHALL       SUNNY     58  30  34 W7        30.08F
MONTEVIDEO     SUNNY     61  30  31 W8        30.07F
PIPESTONE      SUNNY    N/A N/A N/A W7        30.07F
REDWOOD FALLS  SUNNY     55  33  43 S9        30.07F
TRACY          SUNNY     56  33  41 SW7       30.07F
WINDOM         SUNNY     55  28  35 NW5       30.09F
WORTHINGTON    SUNNY     57  29  34 NW7       30.09F
$$

IAZ001>003-012>014-020>022-031-032-NEZ013-014-SDZ071-252300-
NORTHWEST IOWA

CITY           SKY/WX    TMP DP  RH WIND       PRES   REMARKS
CHEROKEE       SUNNY     62  26  26 N6        30.07F
DENISON        SUNNY     63  27  25 N10       30.07F
ESTHERVILLE    SUNNY     55  35  47 VRB5      30.07F
LE MARS        SUNNY     63  21  20 N6        30.08F
ORANGE CITY    SUNNY     61  30  31 W5        30.08F
SHELDON        SUNNY     61  25  25 VRB5      30.06F
SIOUX CITY     SUNNY     61  31  32 CALM      30.08F
SPENCER        SUNNY     61  26  26 CALM      30.08F
STORM LAKE     SUNNY     59  23  25 NE10      30.07F
$$

ABBREVIATIONS USED IN REMARKS
   TC - TEMPERATURE IN CELSIUS
  WCI - WIND CHILL INDEX
   HX - HEAT INDEX
  VSB - VISIBILITY





USA.gov is the U.S. government's official web portal to all federal, state and local government web resources and services.